This demonstration page uses our WeatherBlox Daily Observations layout. Learn more.

Left ArrowRight Arrow

39.08367, -84.50855

Hourly Observations for January 15, 2021

Temp ( °F °C ) Dew Point ( °F °C ) Humidity (%) Winds ( mph kmh ) Pressure ( in mb ) Visibility ( mi km ) Precip ( " mm )
12:53 am 00:53 Cloudy 47 8.3 32 0 56 56 S 10 17 29.59 1002 10 16.0934 0 0
1:53 am 01:53 Cloudy 46 7.8 32 0 58 58 S 9 15 29.58 1002 10 16.0934 0 0
2:53 am 02:53 Cloudy 46 7.8 33 0.6 61 61 S 10 17 29.58 1002 10 16.0934 0 0
3:53 am 03:53 Cloudy 46 7.8 33 0.6 61 61 SSW 10 17 29.57 1001 10 16.0934 0 0
4:12 am 04:12 Cloudy 43 6.1 38 3.3 82 82 WSW 14 22 29.59 1002 7 11.26538 0 0
4:53 am 04:53 Cloudy with Light Rain 40 4.4 37 2.8 89 89 WSW 12 19 29.57 1001 8 12.87472 0.001 0.001
5:06 am 05:06 Cloudy with Light Rain 39 3.9 36 2.2 89 89 WSW 16 26 29.59 1002 8 12.87472 0.001 0.001
5:28 am 05:28 Cloudy with Light Rain 39 3.9 35 1.7 86 86 WSW 10 17 29.6 1002 8 12.87472 0.02 0.508
5:53 am 05:53 Cloudy with Light Rain 38 3.3 35 1.7 89 89 WSW 7 11 29.59 1002 7 11.26538 0.04 1.016
6:42 am 06:42 Cloudy with Light Rain 37 2.8 34 1.1 89 89 SSW 6 9 29.61 1003 10 16.0934 0.03 0.762
6:53 am 06:53 Cloudy with Light Rain 37 2.8 35 1.7 93 93 S 7 11 29.6 1002 10 16.0934 0.03 0.762
7:53 am 07:53 Cloudy with Light Rain 37 2.8 34 1.1 89 89 S 7 11 29.6 1002 10 16.0934 0.001 0.001
8:51 am 08:51 Cloudy with Light Rain 36 2 34 1 93 93 WSW 14 22 29.63 1004 5 8.0467 0.02 0.508
8:53 am 08:53 Cloudy with Rain 35 1.7 33 0.6 93 93 WSW 15 24 29.62 1003 4 6.43736 0.02 0.508
8:55 am 08:55 Cloudy with Rain 35 1.7 32 0 89 89 WSW 17 28 29.63 1004 3 4.82802 0.001 0.001
9:02 am 09:02 Cloudy with Light Rain 35 1.7 31 -0.6 85 85 SW 18 30 29.63 1004 4 6.43736 0.01 0.254
9:53 am 09:53 Mostly Sunny 37 2.8 31 -0.6 79 79 SW 9 15 29.62 1003 10 16.0934 0.01 0.254
10:53 am 10:53 Mostly Sunny 41 5 31 -0.6 67 67 SSW 12 19 29.62 1003 10 16.0934 0 0
11:53 am 11:53 Partly Cloudy 42 5.6 29 -1.7 60 60 SSW 18 30 29.6 1002 10 16.0934 0 0
12:53 pm 12:53 Mostly Cloudy 42 5.6 26 -3.3 53 53 SSW 15 24 29.59 1002 10 16.0934 0 0
1:53 pm 13:53 Mostly Cloudy 46 7.8 25 -3.9 44 44 SSW 16 26 29.57 1001 10 16.0934 0 0
2:53 pm 14:53 Cloudy 42 5.6 24 -4.4 49 49 WSW 13 20 29.6 1002 10 16.0934 0.001 0.001
3:53 pm 15:53 Mostly Cloudy 39 3.9 27 -2.8 62 62 W 7 11 29.62 1003 10 16.0934 0.001 0.001
4:53 pm 16:53 Mostly Cloudy 40 4.4 24 -4.4 53 53 SSW 9 15 29.63 1003 10 16.0934 0 0
5:53 pm 17:53 Mostly Clear 38 3.3 24 -4.4 57 57 SSE 6 9 29.65 1004 10 16.0934 0 0
6:53 pm 18:53 Partly Cloudy 36 2.2 25 -3.9 64 64 SSW 3 6 29.66 1005 10 16.0934 0 0
7:53 pm 19:53 Clear 35 1.7 26 -3.3 70 70 Calm 29.66 1005 10 16.0934 0 0
8:53 pm 20:53 Mostly Cloudy 32 0 25 -3.9 75 75 Calm 29.67 1005 10 16.0934 0 0
9:53 pm 21:53 Cloudy 32 0 27 -2.8 82 82 SSW 5 7 29.67 1005 10 16.0934 0 0
10:53 pm 22:53 Mostly Cloudy 34 1.1 26 -3.3 73 73 Calm 29.65 1004 10 16.0934 0 0
11:53 pm 23:53 Cloudy 31 -0.6 27 -2.8 85 85 SSW 3 6 29.65 1004 10 16.0934 0 0

Powered by AerisWeather